Weather Roundup
Issued by NWS

Home | Current Version | Previous Version | Text Only | Print | Product List | Glossary On
Versions: 1 2 3 4 5 6 7 8 9 10 11 12 13 14 15 16 17 18 19 20 21 22 23 24 25 26 27 28 29 30 31 32 33 34 35 36 37 38 39 40 41 42 43 44 45 46 47 48 49 50
185
NZUS93 KARX 100210
HRRWXR

CURRENT HOURLY OBSERVATIONS ACROSS
MUCH OF THE UPPER MISSISSIPPI VALLEY
NATIONAL WEATHER SERVICE LA CROSSE WI
800 PM CST TUE FEB 09 2016


...SOUTHEAST MINNESOTA...


CITY           SKY/WX    TMP DP  RH WIND       PRES   REMARKS
ROCHESTER      CLEAR      6  -3  66 NW13      30.06S WCI -10
ROCHESTER/MAYO FAIR      11  -1  59 NW10      30.08S WCI  -3
WINONA         CLEAR     14   3  62 NW12      30.10S WCI   0
AUSTIN         CLEAR     10   1  67 NW16G23   30.08S WCI  -7
ALBERT LEA     CLEAR     10   1  67 NW10G16   30.11S WCI  -3
DODGE CENTER   PTCLDY     9   0  66 NW17      30.07S WCI -10
PRESTON        CLEAR      6  -3  64 NW9       30.06S WCI  -7
OWATONNA       CLEAR      9   0  66 NW15      30.11F WCI  -8
FARIBAULT        N/A     10   0  61 NW9       30.13S WCI  -2
$$

...ELSEWHERE IN MINNESOTA...


CITY           SKY/WX    TMP DP  RH WIND       PRES   REMARKS
MINNEAPOLIS    PTCLDY    12  -2  53 NW9       30.15S WCI   0
INTNL FALLS    CLOUDY    -4  -9  79 NW8       30.15F WCI -19
DULUTH         CLEAR      2  -7  66 N12       30.05S WCI -15
RED WING       CLEAR     12  -6  44 NW5       30.11S WCI   4
REDWOOD FALLS  CLOUDY    15   8  73 NW12      30.19S WCI   2
MANKATO        CLEAR     10   1  67 NW9       30.15S WCI  -2
WORTHINGTON    CLOUDY    18   9  68 NW10      30.17F WCI   6
FAIRMONT       CLEAR     12   3  67 NW10      30.14F WCI  -1
$$

...SOUTHWEST WISCONSIN...


CITY           SKY/WX    TMP DP  RH WIND       PRES   REMARKS
LA CROSSE      CLEAR      7  -4  60 NW8       30.07S WCI  -6
PRAIRIE DU CHI CLEAR     11   0  59 CALM      30.07S
BOSCOBEL       PTCLDY    12   0  58 VRB3      30.06S
LONE ROCK      CLEAR     11  -2  56 NW12      30.04R WCI  -3
PLATTEVILLE    CLEAR     10   0  61 NW9       30.01S WCI  -2
FORT MC COY    CLEAR      7  -1  70 CALM      30.05S
CAMP DOUGLAS   PTCLDY     9   1  72 NW12      30.01F WCI  -6
VIROQUA        FAIR       6  -2  68 NW7       29.99F WCI  -5
WIS DELLS      CLOUDY    10  -1  59 NW10G17   29.99S WCI  -3
$$

...ELSEWHERE IN WISCONSIN...


CITY           SKY/WX    TMP DP  RH WIND       PRES   REMARKS
MILWAUKEE      LGT SNOW  16  10  77 NW10      29.92R WCI   4
MADISON        CLOUDY    12   0  58 NW13G18   29.98R WCI  -3
GREEN BAY      LGT SNOW  14   7  73 N9        29.94R WCI   2
EAU CLAIRE     CLEAR     10  -6  48 NW9       30.06R WCI  -3
BLACK RVR FLS  FAIR       1  -6  70 CALM      30.04S
MEDFORD        CLOUDY     8   1  70 N14G21    29.95F WCI  -8
WAUSAU         CLOUDY    11   0  61 NW12G22   29.95S WCI  -3
WIS RAPIDS     CLOUDY    11   0  61 N10       30.00S WCI  -3
MARSHFIELD     CLOUDY    10  -1  61 N14       29.97F WCI  -6
RICE LAKE      CLEAR      8  -6  53 NW5       30.09R WCI   0
$$

...NORTHEAST IOWA...


CITY           SKY/WX    TMP DP  RH WIND       PRES   REMARKS
WATERLOO       CLEAR     10   1  67 NW16      30.11S WCI  -7
DUBUQUE        CLEAR     11   2  67 NW13      30.02R WCI  -4
DECORAH        CLEAR     10  -2  56 NW15G21   30.05S WCI  -6
MASON CITY     CLEAR      9   1  70 NW16      30.13S WCI  -8
CHARLES CITY   CLEAR      9   0  66 NW16      30.10S WCI  -9
OELWEIN        CLEAR      9   0  66 NW18      30.08S WCI -10
$$

...ELSEWHERE IN IOWA...


CITY           SKY/WX    TMP DP  RH WIND       PRES   REMARKS
DES MOINES     CLEAR     17   7  64 N13       30.18S WCI   4
IOWA CITY      CLEAR     13   4  67 NW12      30.13R WCI  -1
FORT DODGE     CLEAR     12   3  67 CALM      30.18S
MARSHALLTOWN   CLEAR     11   4  73 NW18      30.13S WCI  -7
CEDAR RAPIDS   CLEAR     11   5  77 NW16      30.09R WCI  -6
$$

...NORTHERN ILLINOIS...


CITY           SKY/WX    TMP DP  RH WIND       PRES   REMARKS
CHICAGO-OHARE  LGT SNOW  15   8  73 W13       29.94R WCI   1
CHICAGO-MIDWAY FLURRIES  16   7  67 NW14G22   29.95R WCI   2
MOLINE         CLEAR     13   3  64 NW12G25   30.08R WCI  -1
ROCKFORD       MOCLDY    14   3  61 NW13      30.00S WCI   0
PEORIA         CLOUDY    15   3  59 NW14G22   30.06R WCI   0
$$

NOTE: "FAIR" INDICATES FEW OR NO CLOUDS BELOW 12,000 FEET WITH NO
SIGNIFICANT WEATHER AND/OR OBSTRUCTIONS TO VISIBILITY. WIND
SPEEDS ARE IN MILES-PER-HOUR.




USA.gov is the U.S. government's official web portal to all federal, state and local government web resources and services.